Location: Castillon
(43.0896°N, 0.2156°E)
Time: 19:56:00
(UTC+00:00)

Cosmos 2058 Rocket - Pass Details

Date: 16 June 2021
Orbit: 609 x 640 km, 82.5° (Epoch: 31 July)

Event Time Altitude Azimuth Distance (km) Brightness Sun altitude
Rises 23:18:33 0° 353° (N) 2,931 8.0 -22.8°
Reaches altitude 10° 23:20:49 10° 355° (N) 2,014 6.8 -22.9°
Maximum altitude 23:25:17 77° 81° (E) 644 3.0 -23.1°
Enters shadow 23:25:34 73° 124° (SE) 656 2.9 -23.1°
